Weather in Zugmara

Russia / Zabaykalsky Krai     51°11′08″N   109°13′02″E
temp.,
°C
wind,
m/s
gust,
m/s
humid.,
%
clouds,
%
prec.,
mm/h
press.,
hPa
HPBL,
m
22 april, thu
thu2200:00−4nnw236361 0.0 1021112
03:00−4n255895 0.3 1023475
06:00−4n2454100 0.1 1025469
09:00−2nne2346100 0.1 1026681
12:00+3nne233053 0.0 10241309
15:00+6nne333099 0.0 10221747
18:00+5n5434100 0.0 10251448
21:00+1nne5953100 0.2 1028695
23 april, fri
fri2300:00−2nne2594100 2.3 1033351
03:00−2n2497100 7.5 1035262
06:00−3nne3793100 1.1 1037456
09:00−1ene2780100 1.2 1037569
12:00+3ene3461100 0.0 10371197
15:00+3ne4563100 0.0 10351124
18:00+4ne3463100 0.0 10361010
21:000nne2387100 0.0 103740
24 april, sat
sat2400:000ne2380100 0.0 103848
03:00−3nne2384100 0.0 103841
06:00−2ne2477100 0.0 103769
09:00+1ene2669100 0.4 1035260
12:00+7ene4658100 0.1 1031742
15:00+12e4647100 0.1 10231322
18:00+12e2655100 0.0 1020275
21:00+6e2290100 0.7 102126
25 april, sun
sun2500:00+4e1193100 0.6 102112
03:00+4ene2596100 2.9 1018167
06:00+4ne2294100 0.0 101661
09:00+4se1189100 0.0 101728
12:00+5wsw1289100 0.1 1016528
15:00+2nw2598100 0.6 1017392
18:00+2nw2695100 0.9 1017431
21:00+1sw1192100 1.1 101720
26 april, mon
mon2600:00−1w1191100 0.0 101633
03:00−4wnw2196100 0.0 101625
06:00−6w119737 0.0 101814
09:00−1wnw4873100 0.0 10161074
12:00+1nw6965100 0.1 10151477
15:00+4nw71153100 0.3 10142103
18:00+4nw6125646 0.4 10141813
21:000wnw6138098 0.5 10171078